DM5RC Weather Reports


time (UTC)temp
C
wind
direction
speed
KPH
gust
KPH
rain 1hr
cm
rain 24hr
cm
rain mn
cm
humidity
%
barometer
mb
20260905235812 13 269 9.7 19.3 0.00 0.51 0.00 86 1021.3
20260905235313 13 258 8.0 19.3 0.00 0.51 0.00 86 1021.3
20260905234812 13 260 9.7 20.9 0.00 0.51 0.00 85 1021.2
20260905234316 13 262 9.7 20.9 0.00 0.51 0.00 85 1021.2
20260905233819 13 281 8.0 16.1 0.00 0.51 0.00 85 1021.1
20260905233322 13 244 8.0 20.9 0.00 0.51 0.00 85 1021.2
20260905232323 13 260 8.0 17.7 0.00 0.51 0.00 85 1021.2
20260905231825 14 252 9.7 17.7 0.00 0.51 0.00 85 1021.1
20260905231328 14 268 8.0 19.3 0.00 0.51 0.00 85 1021.0
20260905230830 14 282 9.7 16.1 0.00 0.51 0.00 84 1021.0
20260905230332 14 275 8.0 19.3 0.00 0.51 0.00 84 1020.9
20260905225814 14 277 9.7 22.5 0.00 0.51 0.00 83 1020.9
20260905225317 14 283 14.5 22.5 0.00 0.51 0.00 83 1020.9
20260905224820 14 260 9.7 20.9 0.00 0.51 0.00 83 1021.0
20260905224323 14 289 9.7 19.3 0.00 0.51 0.00 83 1020.9
20260905223826 14 274 11.3 19.3 0.00 0.51 0.00 84 1020.9
20260905223329 14 276 8.0 22.5 0.00 0.51 0.00 84 1020.8
20260905222827 14 236 8.0 19.3 0.00 0.51 0.00 85 1020.8
20260905222328 14 283 6.4 25.7 0.00 0.51 0.00 86 1020.8
20260905221830 14 246 6.4 16.1 0.00 0.51 0.00 87 1020.6
20260905221332 14 274 6.4 14.5 0.00 0.51 0.00 87 1020.7
20260905220816 14 263 8.0 12.9 0.00 0.51 0.00 88 1020.6
20260905220338 13 269 8.0 14.5 0.00 0.51 0.00 88 1020.7
20260905215832 13 263 6.4 16.1 0.00 0.51 0.10 88 1020.7
20260905215314 13 260 4.8 14.5 0.00 0.51 0.10 88 1020.6
20260905214815 13 267 4.8 12.9 0.00 0.51 0.10 88 1020.5
20260905214318 13 235 9.7 12.9 0.00 0.51 0.10 88 1020.5
20260905213818 13 269 4.8 11.3 0.00 0.51 0.10 88 1020.5
20260905213338 13 269 4.8 9.7 0.00 0.51 0.10 88 1020.4
20260905212817 13 252 4.8 9.7 0.00 0.51 0.10 88 1020.4
20260905212317 14 256 4.8 11.3 0.00 0.51 0.10 88 1020.3
20260905211817 14 261 6.4 14.5 0.00 0.51 0.10 88 1020.2
20260905211318 14 257 4.8 11.3 0.00 0.51 0.10 87 1020.2
20260905210819 14 265 3.2 9.7 0.00 0.51 0.10 87 1020.1
20260905210339 14 270 3.2 11.3 0.00 0.51 0.10 86 1020.1
20260905205838 14 270 4.8 11.3 0.00 1.30 0.10 86 1020.2
20260905205319 14 275 4.8 16.1 0.00 1.30 0.10 85 1020.1
20260905204821 14 269 8.0 17.7 0.00 1.30 0.10 85 1020.1
20260905204324 14 245 6.4 17.7 0.00 1.30 0.10 86 1020.0
20260905203828 14 259 6.4 14.5 0.00 1.30 0.10 86 1019.9
20260905203312 14 274 6.4 16.1 0.00 1.30 0.10 86 1019.9
20260905202814 15 316 8.0 17.7 0.00 1.30 0.10 86 1019.8
20260905202315 15 274 8.0 20.9 0.00 1.30 0.10 85 1019.9
20260905201816 15 281 9.7 24.1 0.00 1.30 0.10 85 1019.9
20260905201317 15 267 9.7 24.1 0.00 1.30 0.10 86 1019.8
20260905200820 15 281 9.7 20.9 0.00 1.30 0.10 86 1019.7
20260905200322 15 275 6.4 20.9 0.00 1.30 0.10 86 1019.8
20260905195825 15 259 9.7 16.1 0.00 1.80 0.10 86 1019.7
20260905195348 15 265 6.4 16.1 0.00 1.80 0.10 86 1019.6
20260905194830 15 286 8.0 16.1 0.00 1.80 0.10 86 1019.5
20260905194331 15 276 8.0 20.9 0.00 1.80 0.10 86 1019.5
20260905193830 15 272 11.3 22.5 0.00 1.80 0.10 86 1019.5
20260905193330 15 274 14.5 22.5 0.00 1.80 0.10 87 1019.4
20260905192831 15 211 6.4 19.3 0.00 1.80 0.10 88 1019.3
20260905192312 15 260 4.8 19.3 0.00 1.80 0.10 88 1019.3
20260905191834 15 269 6.4 20.9 0.00 1.80 0.10 88 1019.2
20260905191329 15 263 8.0 20.9 0.00 1.80 0.10 89 1019.2
20260905190832 15 270 8.0 16.1 0.00 1.80 0.10 89 1019.0
20260905190313 14 214 8.0 14.5 0.00 1.80 0.10 89 1019.0
20260905185815 14 280 4.8 16.1 0.00 2.49 0.10 89 1018.9
20260905185338 14 251 6.4 14.5 0.00 2.49 0.10 89 1018.8
20260905184820 14 263 9.7 14.5 0.00 2.49 0.10 89 1018.9
20260905184322 14 274 9.7 16.1 0.00 2.49 0.10 89 1018.8
20260905183825 14 267 8.0 17.7 0.00 2.49 0.10 89 1018.8
20260905183328 14 262 6.4 17.7 0.00 2.49 0.10 89 1018.9
20260905182829 14 271 9.7 19.3 0.10 2.49 0.10 89 1018.9
20260905182331 14 267 12.9 20.9 0.51 2.49 0.10 90 1018.8
20260905181814 14 244 8.0 20.9 0.51 2.49 0.10 90 1018.7
20260905181318 14 274 8.0 16.1 0.51 2.49 0.10 90 1018.8
20260905180822 14 263 8.0 16.1 0.51 2.49 0.10 90 1018.6
20260905180323 14 251 8.0 16.1 0.51 2.49 0.10 90 1018.6
20260905175825 14 253 6.4 16.1 0.51 2.49 0.10 90 1018.5
20260905175329 14 262 9.7 16.1 0.51 2.49 0.10 89 1018.7
20260905174832 15 309 6.4 17.7 0.51 2.49 0.10 88 1018.5
20260905174334 15 295 4.8 17.7 0.51 2.49 0.10 88 1018.4
20260905173816 15 288 6.4 24.1 0.51 2.49 0.10 87 1018.6
20260905173316 15 345 11.3 27.4 0.51 2.49 0.10 86 1018.6
20260905172818 16 347 9.7 27.4 0.30 2.31 0.05 83 1018.6
20260905172319 17 334 12.9 27.4 0.00 2.01 0.00 79 1018.5
20260905171819 17 8 8.0 19.3 0.00 2.01 0.00 75 1018.4
20260905171320 17 347 3.2 16.1 0.00 2.01 0.00 76 1018.0
20260905170841 17 262 8.0 14.5 0.00 2.01 0.00 77 1017.7
20260905170320 16 265 1.6 11.3 0.00 2.01 0.00 79 1017.6
20260905165838 17 324 4.8 11.3 0.00 3.40 0.00 79 1017.6
20260905165337 16 279 3.2 16.1 0.00 3.40 0.00 79 1017.5
20260905164818 16 319 6.4 19.3 0.00 3.40 0.00 80 1017.5
20260905164320 16 354 6.4 19.3 0.00 3.40 0.00 79 1017.4
20260905163820 17 312 3.2 14.5 0.00 3.40 0.00 78 1017.4
20260905163321 17 333 4.8 22.5 0.00 3.40 0.00 77 1017.4
20260905162823 18 6 9.7 24.1 0.00 3.40 0.00 73 1017.4
20260905162324 19 279 9.7 35.4 0.00 3.40 0.00 68 1017.4
20260905161828 19 326 8.0 19.3 0.00 3.40 0.00 64 1017.4
20260905161329 19 331 9.7 20.9 0.00 3.40 0.00 64 1017.0
20260905160832 19 339 8.0 22.5 0.00 3.40 0.00 64 1016.7
20260905160316 18 340 8.0 30.6 0.00 3.40 0.00 66 1016.6
20260905155819 18 278 6.4 30.6 0.00 3.40 0.00 66 1016.5
20260905155322 18 294 11.3 24.1 0.00 3.40 0.00 66 1016.4
20260905154823 19 284 9.7 43.5 0.00 3.40 0.00 66 1016.5
20260905154343 20 297 22.5 43.5 0.00 3.40 0.00 60 1016.6
20260905153823 20 281 12.9 35.4 0.00 3.40 0.00 57 1016.1
20260905153323 20 248 12.9 25.7 0.00 3.40 0.00 57 1016.0
20260905152844 21 354 11.3 33.8 0.00 3.40 0.00 57 1015.7
20260905152323 21 287 16.1 33.8 0.00 3.40 0.00 56 1015.8
20260905151843 21 271 9.7 29.0 0.00 3.40 0.00 57 1015.6
20260905151321 21 269 14.5 29.0 0.00 3.40 0.00 56 1015.6
20260905150822 21 258 11.3 33.8 0.00 3.40 0.00 56 1015.6
20260905150323 21 274 9.7 33.8 0.00 3.40 0.00 55 1015.5
20260905145824 21 282 11.3 29.0 0.00 3.40 0.00 54 1015.5
20260905145323 21 277 19.3 41.8 0.00 3.40 0.00 54 1015.5
20260905144823 21 282 17.7 41.8 0.00 3.40 0.00 54 1015.5
20260905144344 21 310 14.5 35.4 0.00 3.40 0.00 54 1015.6
20260905143824 21 248 19.3 41.8 0.00 3.40 0.00 55 1015.6
20260905143325 21 287 17.7 38.6 0.00 3.40 0.00 55 1015.6
20260905142825 21 275 9.7 30.6 0.00 3.40 0.00 59 1015.6
20260905142327 21 269 19.3 30.6 0.00 3.40 0.00 59 1015.7
20260905141830 21 269 9.7 27.4 0.00 3.40 0.00 60 1015.5
20260905141331 21 270 9.7 27.4 0.00 3.40 0.00 60 1015.5
20260905140814 21 277 11.3 38.6 0.00 3.40 0.00 59 1015.4
20260905140316 21 286 20.9 43.5 0.00 3.40 0.00 59 1015.4
20260905135838 22 266 19.3 43.5 0.00 3.40 0.00 57 1015.6
20260905135319 22 269 6.4 40.2 0.00 3.40 0.00 58 1015.2
20260905134822 21 233 9.7 25.7 0.00 3.40 0.00 58 1015.2
20260905134345 21 272 12.9 25.7 0.00 3.40 0.00 58 1015.2
20260905133827 21 224 6.4 32.2 0.00 3.40 0.00 60 1015.2
20260905133330 21 275 14.5 32.2 0.00 3.40 0.00 59 1015.4
20260905132813 21 269 19.3 32.2 0.00 3.40 0.00 59 1015.3
20260905132316 20 295 16.1 29.0 0.00 3.40 0.00 60 1015.5
20260905131836 20 264 12.9 30.6 0.00 3.40 0.00 60 1015.6
20260905131316 20 243 16.1 32.2 0.00 3.40 0.00 59 1015.5
20260905130819 20 276 11.3 32.2 0.00 3.40 0.00 60 1015.6
20260905130322 20 264 17.7 30.6 0.00 3.40 0.00 59 1015.5
20260905125824 21 312 16.1 41.8 0.00 3.40 0.00 58 1015.5
20260905125346 21 255 25.7 41.8 0.00 3.40 0.00 58 1015.4
20260905124828 21 274 14.5 30.6 0.00 3.40 0.00 59 1015.3
20260905124331 21 248 14.5 35.4 0.00 3.40 0.00 59 1015.5
20260905123834 21 262 12.9 35.4 0.00 3.40 0.00 60 1015.5
20260905123336 21 261 14.5 30.6 0.00 3.40 0.00 60 1015.5
20260905122835 20 270 17.7 30.6 0.00 3.40 0.00 62 1015.6
20260905122319 20 270 14.5 25.7 0.00 3.40 0.00 65 1015.5
20260905121823 19 236 9.7 37.0 0.00 3.40 0.00 68 1015.6
20260905121327 19 274 14.5 37.0 0.00 3.40 0.00 69 1015.7
20260905120816 19 267 12.9 41.8 0.00 3.40 0.00 69 1015.8
20260905120318 20 251 19.3 41.8 0.00 3.40 0.00 63 1015.6
20260905115836 20 274 9.7 30.6 0.00 3.40 0.00 64 1015.6
20260905115336 20 319 16.1 32.2 0.00 3.40 0.00 64 1015.7
20260905114817 19 278 16.1 37.0 0.00 3.40 0.00 65 1015.9
20260905114319 20 281 22.5 37.0 0.00 3.40 0.00 64 1015.8
20260905113819 20 262 20.9 40.2 0.00 3.40 0.00 60 1015.8
20260905113320 20 229 20.9 40.2 0.00 3.40 0.00 59 1015.7
20260905112820 21 254 19.3 33.8 0.00 3.40 0.00 59 1015.5
20260905112340 21 270 11.3 40.2 0.00 3.40 0.00 60 1015.5
20260905111820 21 255 16.1 40.2 0.00 3.40 0.00 59 1015.4
20260905111321 21 248 12.9 32.2 0.00 3.40 0.00 58 1015.5
20260905110813 21 252 14.5 32.2 0.00 3.40 0.00 58 1015.5
20260905110332 21 257 14.5 33.8 0.00 3.40 0.00 59 1015.5
20260905105832 20 282 17.7 33.8 0.00 3.40 0.00 59 1015.6
20260905105314 20 275 14.5 32.2 0.00 3.40 0.00 62 1015.8
20260905104836 20 243 20.9 32.2 0.00 3.40 0.00 62 1015.8
20260905104338 20 268 12.9 30.6 0.00 3.40 0.00 62 1015.9
20260905103817 20 257 12.9 30.6 0.00 3.40 0.00 64 1015.9
20260905103318 20 276 12.9 30.6 0.00 3.40 0.00 64 1015.9
20260905102819 19 273 16.1 32.2 0.00 3.40 0.00 64 1016.0
20260905102318 19 279 16.1 35.4 0.00 3.40 0.00 63 1016.1
20260905101819 19 277 20.9 43.5 0.00 3.40 0.00 62 1016.0
20260905101320 20 275 27.4 43.5 0.00 3.40 0.00 60 1016.1
20260905100821 20 264 14.5 37.0 0.00 3.40 0.00 62 1015.9
20260905100319 20 278 19.3 38.6 0.00 3.40 0.00 61 1016.0
20260905095820 20 294 11.3 32.2 0.00 3.40 0.00 61 1016.1
20260905095322 20 255 16.1 32.2 0.00 3.40 0.00 62 1015.9
20260905094824 19 198 16.1 29.0 0.00 3.40 0.00 63 1015.9
20260905094327 19 265 11.3 29.0 0.00 3.40 0.00 64 1016.0
20260905093830 19 257 14.5 40.2 0.00 3.40 0.00 63 1016.2
20260905093332 19 274 16.1 40.2 0.00 3.40 0.00 63 1015.9
20260905092814 19 220 14.5 32.2 0.00 3.40 0.00 64 1016.0
20260905092402 19 291 12.9 29.0 0.00 3.40 0.00 64 1016.0
20260905091839 19 263 9.7 32.2 0.00 3.40 0.00 67 1015.9
20260905091320 18 276 16.1 32.2 0.00 3.40 0.00 68 1015.9
20260905090821 18 297 14.5 33.8 0.00 3.40 0.00 68 1015.9
20260905090323 18 288 16.1 33.8 0.00 3.40 0.00 68 1015.8
20260905085826 18 323 12.9 32.2 0.00 3.40 0.00 69 1015.8
20260905085329 18 316 12.9 37.0 0.00 3.40 0.00 67 1015.8
20260905084830 18 250 17.7 37.0 0.00 3.40 0.00 66 1015.9
20260905084330 18 262 9.7 35.4 0.00 3.40 0.00 70 1015.6
20260905083816 18 255 20.9 35.4 0.00 3.40 0.00 67 1015.8
20260905083317 18 238 16.1 35.4 0.00 3.40 0.00 69 1015.6
20260905082816 18 264 14.5 33.8 0.00 3.40 0.00 71 1015.6
20260905082339 18 275 16.1 25.7 0.00 3.40 0.00 72 1015.5
20260905081841 18 293 16.1 27.4 0.00 3.40 0.00 72 1015.5
20260905081321 18 278 17.7 30.6 0.00 3.40 0.00 73 1015.6
20260905080821 18 282 11.3 33.8 0.00 3.40 0.00 74 1015.5
20260905080338 17 262 12.9 35.4 0.00 3.40 0.00 75 1015.5
20260905075818 18 333 11.3 35.4 0.00 3.40 0.00 75 1015.4
20260905075318 18 317 11.3 35.4 0.00 3.40 0.00 76 1015.4
20260905074819 17 290 14.5 35.4 0.00 3.40 0.00 75 1015.4
20260905074320 18 279 12.9 33.8 0.00 3.40 0.00 76 1015.3
20260905073819 17 275 11.3 33.8 0.00 3.40 0.00 76 1015.2
20260905073320 17 266 8.0 29.0 0.00 3.40 0.00 78 1015.1
20260905072822 17 267 14.5 29.0 0.00 3.40 0.00 77 1015.1
20260905072344 17 277 16.1 25.7 0.00 3.40 0.00 77 1015.1
20260905071824 17 278 9.7 25.7 0.00 3.40 0.00 78 1015.1
20260905071345 17 280 12.9 32.2 0.00 3.40 0.00 78 1015.1
20260905070824 17 283 16.1 30.6 0.00 3.40 0.00 78 1015.2
20260905070324 17 305 12.9 27.4 0.00 3.40 0.00 79 1015.1
20260905065826 17 231 11.3 19.3 0.00 3.40 0.00 80 1015.0
20260905065329 17 275 11.3 29.0 0.00 3.40 0.00 80 1014.9
20260905064830 16 200 11.3 29.0 0.00 3.40 0.00 80 1014.9
20260905064313 16 276 9.7 25.7 0.00 3.40 0.00 81 1014.8
20260905063814 16 287 11.3 29.0 0.00 3.40 0.00 82 1014.8
20260905063315 16 250 12.9 29.0 0.00 3.40 0.00 81 1014.8
20260905062818 16 257 8.0 25.7 0.00 3.40 0.00 82 1014.8
20260905062323 16 278 11.3 24.1 0.00 3.40 0.00 83 1014.7
20260905061825 16 259 6.4 22.5 0.00 3.40 0.00 84 1014.7
20260905061325 15 281 8.0 22.5 0.00 3.40 0.00 84 1014.6
20260905060825 15 291 12.9 20.9 0.00 3.40 0.00 84 1014.7
20260905060326 15 278 12.9 20.9 0.00 3.40 0.00 85 1014.7
20260905055826 15 281 9.7 20.9 0.00 3.40 0.00 86 1014.7
20260905055327 15 267 6.4 20.9 0.00 3.40 0.00 86 1014.5
20260905054828 15 241 9.7 17.7 0.00 3.40 0.00 87 1014.6
20260905054328 15 257 9.7 17.7 0.00 3.40 0.00 87 1014.5
20260905053852 15 269 8.0 12.9 0.00 3.40 0.00 87 1014.5
20260905053334 15 255 3.2 16.1 0.00 3.40 0.00 88 1014.4
20260905052816 15 252 9.7 16.1 0.00 3.40 0.00 87 1014.4
20260905052319 15 281 4.8 14.5 0.00 3.40 0.00 88 1014.3
20260905051821 15 265 4.8 14.5 0.00 3.40 0.00 88 1014.2
20260905051324 15 269 6.4 16.1 0.00 3.40 0.00 88 1014.2
20260905050847 15 278 8.0 16.1 0.00 3.40 0.00 88 1014.1
20260905050330 15 275 6.4 16.1 0.00 3.40 0.00 88 1014.0
20260905045853 15 248 6.4 17.7 0.00 3.40 0.00 88 1014.0
20260905045332 14 285 11.3 17.7 0.00 3.40 0.00 88 1013.9
20260905044853 14 254 6.4 14.5 0.00 3.40 0.00 88 1013.8
20260905044312 14 218 4.8 16.1 0.00 3.40 0.00 89 1013.8
20260905043813 15 222 4.8 16.1 0.00 3.40 0.00 88 1013.7
20260905043315 15 281 4.8 14.5 0.00 3.40 0.00 88 1013.6
20260905042835 15 273 6.4 12.9 0.00 3.40 0.00 88 1013.5
20260905042315 15 277 6.4 19.3 0.00 3.40 0.00 88 1013.4
20260905041817 15 264 9.7 20.9 0.00 3.40 0.00 88 1013.4
20260905041320 15 249 8.0 20.9 0.00 3.40 0.00 88 1013.4
20260905040842 15 263 6.4 17.7 0.00 3.40 0.00 88 1013.3
20260905040324 15 276 8.0 19.3 0.00 3.40 0.00 88 1013.3
20260905035847 15 277 11.3 19.3 0.00 3.40 0.00 88 1013.3
20260905035326 15 283 6.4 16.1 0.00 3.40 0.00 87 1013.2
20260905034827 15 262 9.7 16.1 0.00 3.40 0.00 87 1013.2
20260905034326 15 285 8.0 12.9 0.00 3.40 0.00 87 1013.2
20260905033827 15 268 8.0 16.1 0.00 3.40 0.00 88 1013.1
20260905033328 15 259 9.7 20.9 0.00 3.40 0.00 87 1013.1
20260905032830 15 276 11.3 20.9 0.00 3.40 0.00 87 1013.1
20260905032352 15 266 8.0 19.3 0.00 3.40 0.00 87 1013.0
20260905031812 15 264 8.0 17.7 0.00 3.40 0.00 88 1012.9
20260905031314 15 281 8.0 19.3 0.00 3.40 0.00 87 1012.8
20260905030835 15 296 9.7 20.9 0.00 3.40 0.00 87 1012.8
20260905030315 15 276 9.7 20.9 0.00 3.40 0.00 88 1012.7
20260905025817 15 276 4.8 20.9 0.00 3.40 0.00 88 1012.6
20260905025320 15 282 9.7 20.9 0.00 3.40 0.00 88 1012.5
20260905024843 16 276 6.4 19.3 0.00 3.40 0.00 88 1012.5
20260905024325 16 255 9.7 17.7 0.00 3.40 0.00 88 1012.4
20260905023828 16 281 8.0 16.1 0.00 3.40 0.00 88 1012.4
20260905023330 16 267 8.0 19.3 0.00 3.40 0.00 88 1012.3
20260905022849 16 262 11.3 24.1 0.00 3.40 0.00 88 1012.3
20260905022352 16 265 11.3 24.1 0.00 3.40 0.00 88 1012.2
20260905021816 16 271 9.7 25.7 0.00 3.40 0.00 88 1012.2
20260905021320 16 262 9.7 20.9 0.00 3.40 0.00 88 1012.2
20260905020823 16 265 9.7 16.1 0.00 3.40 0.00 89 1012.1
20260905020326 16 230 8.0 16.1 0.00 3.40 0.00 89 1012.0
20260905015828 16 275 4.8 16.1 0.00 3.40 0.00 89 1011.9
20260905015332 16 285 8.0 24.1 0.00 3.40 0.00 89 1011.9
20260905014816 16 261 8.0 24.1 0.00 3.40 0.00 89 1012.0
20260905014316 16 278 6.4 14.5 0.00 3.40 0.00 90 1012.0
20260905013817 16 267 8.0 17.7 0.00 3.40 0.00 90 1012.0
20260905013317 16 253 8.0 17.7 0.00 3.40 0.00 91 1011.9
20260905012820 16 224 6.4 12.9 0.00 3.40 0.00 91 1011.8
20260905012320 16 252 6.4 12.9 0.00 3.40 0.00 91 1011.8
20260905011820 16 267 3.2 12.9 0.00 3.40 0.00 91 1011.7
20260905011323 16 259 6.4 14.5 0.00 3.40 0.00 90 1011.7
20260905010826 16 272 6.4 24.1 0.00 3.40 0.00 90 1011.7
20260905010327 16 264 12.9 24.1 0.00 3.40 0.00 91 1011.8
20260905005831 16 272 6.4 22.5 0.00 3.40 0.00 91 1011.7
20260905005335 16 270 8.0 22.5 0.00 3.40 0.00 91 1011.7
20260905004814 16 263 9.7 19.3 0.00 3.40 0.00 92 1011.7
20260905004314 16 233 8.0 19.3 0.00 3.40 0.00 92 1011.7
20260905003814 16 275 4.8 16.1 0.00 3.40 0.00 92 1011.7
20260905003314 16 278 8.0 17.7 0.00 3.40 0.00 92 1011.6
20260905002815 16 258 11.3 17.7 0.00 3.40 0.00 92 1011.7
20260905002316 16 276 8.0 17.7 0.00 3.40 0.00 92 1011.6
20260905001836 16 268 4.8 17.7 0.00 3.40 0.00 92 1011.6
20260905001315 16 277 6.4 17.7 0.00 3.40 0.00 91 1011.5
20260905000815 16 278 8.0 16.1 0.00 3.40 0.00 91 1011.6
20260905000318 16 260 9.7 20.9 0.00 3.40 0.00 91 1011.6